Skip Page Navigation
NASA JPL Caltech
NASA Logo - Jet Propulsion Laboratory + View the NASA Portal
+ Near-Earth Object (NEO) Program
Search JPL
JPL Home Earth Solar System Stars & Galaxies Technology
JPL Solar System Dynamics
BODIES ORBITS EPHEMERIDES TOOLS PHYSICAL DATA DISCOVERY FAQ SITE MAP
JPL Small-Body Database Browser
Search: [ help ]  
79130 Bandanomori (1990 UC2)
Classification: Main-belt Asteroid          SPK-ID: 2079130
Ephemeris | Orbit Diagram | Orbital Elements | Physical Parameters | Discovery Circumstances ]

[ show orbit diagram ]
Orbital Elements at Epoch 2456400.5 (2013-Apr-18.0) TDB
Reference: MPO250888 (heliocentric ecliptic J2000)
 Element Value Uncertainty (1-sigma)   Units 
e 0.1645124 n/a  
a 2.4562398 n/a AU
q 2.0521579 n/a AU
i 9.28377 n/a deg
node 81.95224 n/a deg
peri 278.38483 n/a deg
M 318.01151 n/a deg
tp 2456564.4956559
(2013-Sep-28.99565590)
n/a JED
period 1406.0623786
3.85
n/a
n/a
d
yr
n 0.25603416 n/a deg/d
Q 2.8603217 n/a AU
  Orbit Determination Parameters
   # obs. used (total)      533  
   first obs. used      1990-??-??  
   last obs. used      2012-07-19  
   # oppositions      11  
   planetary ephem.      DE403  
   condition code      0  
   fit RMS      0.57  
   data source      MPC:mpn  
   producer      MPCLINUX  

Additional Information
 T_jup = 3.456 

Ephemeris | Orbit Diagram | Orbital Elements | Physical Parameters | Discovery Circumstances ]

Physical Parameter Table
Parameter Symbol Value Units Sigma Reference Notes
absolute magnitude H 14.3 mag n/a MPO250888  

79130 Bandanomori           Discovered 1990 Oct. 26 by T. Seki at Geisei.
Bandanomori, a 769-meter-high mountain in Suzaki city in Kochi prefecture, is well-known among climbers for its magnificent views of the Pacific Ocean. Comet C/1965 S1 (Ikeya-Seki) was observed from there as it passed perihelion on 1965 Oct. 21.
NOTE: some special characters may not display properly (any characters within {} are an attempt to place the proper accent above a character)
Reference: 20080819/MPCPages.arcLast Updated: 2008-08-25
Ephemeris | Orbit Diagram | Orbital Elements | Physical Parameters | Discovery Circumstances ]
ABOUT SSD CREDITS/AWARDS PRIVACY/COPYRIGHT GLOSSARY LINKS
FirstGov 2013-May-19 10:43 UT
(server date/time)  
NASA Home Page
Site Manager:   Donald K. Yeomans
Webmaster  Alan B. Chamberlin